Weather History for Chandler, OK

Change the Weather History Date:

Sunday, March 3, 2013

  Actual Average (KCUH) Record (KCUH)
Temperature  
Mean Temperature 52 °F -  
Max Temperature 71 °F 58 °F 88 °F (1955)
Min Temperature 33 °F 36 °F 1 °F (2014)
Degree Days  
Heating Degree Days 13    
Growing Degree Days 2 (Base 50)    
Moisture  
Dew Point 34 °F    
Average Humidity 55    
Maximum Humidity 87    
Minimum Humidity 29    
Precipitation  
Precipitation 0.00 in - - ()
Sea Level Pressure  
Sea Level Pressure 29.92 in    
Wind  
Wind Speed 9 mph (South)    
Max Wind Speed 17 mph    
Max Gust Speed 25 mph    
Visibility 10 miles    
Events      
Averages and records for this station are not official NWS values.
T = Trace of Precipitation, MM = Missing Value Source: NWS Daily Summary

Daily Weather History Graph

Daily Weather History Graph

Search for Another Location

Airport:

Trip Planner

Search our weather history database for the weather conditions in past years. The results will help you decide how hot, cold, wet, or windy it might be!

Date:

Astronomy

Mar. 03, 2013 Rise Set
Actual Time 6:54 AM CST 6:24 PM CST
Civil Twilight 6:28 AM CST 6:50 PM CST
Nautical Twilight 5:59 AM CST 7:19 PM CST
Astronomical Twilight 5:29 AM CST 7:49 PM CST
Moon No Moon Rise 10:23 AM CST (3/3)
Length of Visible Light 12h 21m
Length of Day
11h 30m
Waning Gibbous, 63% of the Moon is Illuminated
Mar 3
Waning Gibbous
Mar 4
Last Quarter
Mar 11
New
Mar 19
First Quarter
Mar 27
Full

Hourly Weather History & Observations

Time (CST) Temp. Windchill Dew Point Humidity Pressure Visibility Wind Dir Wind Speed Gust Speed Precip Events Conditions
12:15 AM 37.4 °F 32.1 °F 30.2 °F 75% 30.17 in 10.0 mi South 6.9 mph - N/A   Clear
12:35 AM 37.4 °F 32.1 °F 30.2 °F 75% 30.16 in 10.0 mi South 6.9 mph - N/A   Clear
12:55 AM 35.6 °F 30.7 °F 30.2 °F 81% 30.17 in 10.0 mi South 5.8 mph - N/A   Clear
1:15 AM 35.6 °F 30.7 °F 30.2 °F 81% 30.16 in 10.0 mi South 5.8 mph - N/A   Clear
1:35 AM 33.8 °F 28.6 °F 30.2 °F 87% 30.16 in 10.0 mi SE 5.8 mph - N/A   Clear
1:55 AM 35.6 °F 30.7 °F 30.2 °F 81% 30.16 in 10.0 mi SE 5.8 mph - N/A   Clear
2:15 AM 35.6 °F 29.9 °F 30.2 °F 81% 30.15 in 10.0 mi SE 6.9 mph - N/A   Clear
2:35 AM 35.6 °F 29.9 °F 30.2 °F 81% 30.13 in 10.0 mi SSE 6.9 mph - N/A   Clear
2:55 AM 33.8 °F 29.6 °F 28.4 °F 81% 30.14 in 10.0 mi SSE 4.6 mph - N/A   Clear
3:15 AM 33.8 °F 28.6 °F 28.4 °F 81% 30.14 in 10.0 mi South 5.8 mph - N/A   Clear
3:35 AM 33.8 °F 28.6 °F 28.4 °F 81% 30.13 in 10.0 mi South 5.8 mph - N/A   Clear
3:55 AM 33.8 °F 28.6 °F 28.4 °F 81% 30.12 in 10.0 mi South 5.8 mph - N/A   Clear
4:15 AM 33.8 °F 28.6 °F 28.4 °F 81% 30.11 in 10.0 mi South 5.8 mph - N/A   Clear
4:35 AM 33.8 °F 27.7 °F 30.2 °F 87% 30.10 in 10.0 mi South 6.9 mph - N/A   Clear
4:55 AM 35.6 °F 29.9 °F 30.2 °F 81% 30.09 in 10.0 mi South 6.9 mph - N/A   Clear
5:15 AM 35.6 °F 30.7 °F 28.4 °F 75% 30.08 in 10.0 mi South 5.8 mph - N/A   Clear
5:35 AM 35.6 °F 30.7 °F 28.4 °F 75% 30.08 in 10.0 mi South 5.8 mph - N/A   Clear
5:55 AM 33.8 °F 27.7 °F 28.4 °F 81% 30.07 in 10.0 mi South 6.9 mph - N/A   Clear
6:15 AM 35.6 °F 29.2 °F 28.4 °F 75% 30.07 in 10.0 mi South 8.1 mph - N/A   Clear
6:35 AM 35.6 °F 29.9 °F 28.4 °F 75% 30.07 in 10.0 mi South 6.9 mph - N/A   Clear
6:55 AM 35.6 °F 29.9 °F 30.2 °F 81% 30.06 in 10.0 mi South 6.9 mph - N/A   Clear
7:15 AM 35.6 °F 30.7 °F 30.2 °F 81% 30.06 in 10.0 mi South 5.8 mph - N/A   Clear
7:35 AM 37.4 °F 33.8 °F 30.2 °F 75% 30.06 in 10.0 mi SSE 4.6 mph - N/A   Clear
7:55 AM 39.2 °F 33.0 °F 32.0 °F 75% 30.06 in 10.0 mi South 9.2 mph - N/A   Clear
8:15 AM 42.8 °F 37.5 °F 32.0 °F 66% 30.06 in 10.0 mi South 9.2 mph - N/A   Clear
8:35 AM 44.6 °F 39.2 °F 32.0 °F 61% 30.06 in 10.0 mi South 10.4 mph 16.1 mph N/A   Clear
8:55 AM 46.4 °F 41.5 °F 32.0 °F 57% 30.05 in 10.0 mi South 10.4 mph - N/A   Clear
9:15 AM 48.2 °F - 32.0 °F 54% 30.05 in 10.0 mi South 12.7 mph 17.3 mph N/A   Clear
9:35 AM 50.0 °F - 32.0 °F 50% 30.03 in 10.0 mi South 16.1 mph 20.7 mph N/A   Clear
9:55 AM 51.8 °F - 32.0 °F 47% 30.03 in 10.0 mi South 11.5 mph 20.7 mph N/A   Clear
10:15 AM 53.6 °F - 33.8 °F 47% 30.01 in 10.0 mi South 12.7 mph 20.7 mph N/A   Clear
10:35 AM 55.4 °F - 33.8 °F 44% 30.00 in 10.0 mi South 15.0 mph 19.6 mph N/A   Clear
10:55 AM 57.2 °F - 33.8 °F 41% 29.98 in 10.0 mi South 16.1 mph 24.2 mph N/A   Clear
11:15 AM 57.2 °F - 33.8 °F 41% 29.97 in 10.0 mi South 16.1 mph 21.9 mph N/A   Clear
11:35 AM 60.8 °F - 35.6 °F 39% 29.96 in 10.0 mi South 15.0 mph 19.6 mph N/A   Clear
11:55 AM 60.8 °F - 35.6 °F 39% 29.95 in 10.0 mi SSW 16.1 mph 20.7 mph N/A   Clear
12:15 PM 64.4 °F - 37.4 °F 37% 29.94 in 10.0 mi South 12.7 mph 19.6 mph N/A   Clear
12:35 PM 64.4 °F - 37.4 °F 37% 29.91 in 10.0 mi South 13.8 mph 19.6 mph N/A   Clear
12:55 PM 66.2 °F - 37.4 °F 35% 29.90 in 10.0 mi South 11.5 mph 20.7 mph N/A   Clear
1:15 PM 66.2 °F - 37.4 °F 35% 29.89 in 10.0 mi South 12.7 mph 21.9 mph N/A   Clear
1:55 PM 68.0 °F - 37.4 °F 33% 29.85 in 10.0 mi South 11.5 mph 21.9 mph N/A   Clear
2:15 PM 69.8 °F - 37.4 °F 31% 29.84 in 10.0 mi South 16.1 mph 20.7 mph N/A   Clear
2:35 PM 71.6 °F - 37.4 °F 29% 29.82 in 10.0 mi South 15.0 mph 18.4 mph N/A   Clear
2:55 PM 69.8 °F - 37.4 °F 31% 29.81 in 10.0 mi South 17.3 mph - N/A   Clear
3:35 PM 71.6 °F - 37.4 °F 29% 29.79 in 10.0 mi South 15.0 mph 21.9 mph N/A   Clear
3:55 PM 69.8 °F - 37.4 °F 31% 29.78 in 10.0 mi South 11.5 mph 24.2 mph N/A   Clear
4:15 PM 69.8 °F - 37.4 °F 31% 29.77 in 10.0 mi SSE 17.3 mph 21.9 mph N/A   Clear
4:35 PM 68.0 °F - 37.4 °F 33% 29.77 in 10.0 mi South 15.0 mph 23.0 mph N/A   Clear
4:55 PM 68.0 °F - 37.4 °F 33% 29.76 in 10.0 mi South 15.0 mph 25.3 mph N/A   Clear
5:15 PM 68.0 °F - 37.4 °F 33% 29.75 in 10.0 mi South 13.8 mph 24.2 mph N/A   Clear
5:35 PM 66.2 °F - 37.4 °F 35% 29.76 in 10.0 mi SSE 15.0 mph 19.6 mph N/A   Clear
5:55 PM 64.4 °F - 37.4 °F 37% 29.76 in 10.0 mi SSE 10.4 mph - N/A   Clear
6:15 PM 62.6 °F - 37.4 °F 39% 29.76 in 10.0 mi SSE 11.5 mph - N/A   Clear
6:35 PM 62.6 °F - 37.4 °F 39% 29.76 in 10.0 mi SSE 11.5 mph 16.1 mph N/A   Clear
6:55 PM 60.8 °F - 37.4 °F 42% 29.75 in 10.0 mi SSE 9.2 mph - N/A   Clear
7:15 PM 59.0 °F - 37.4 °F 45% 29.74 in 10.0 mi SSE 11.5 mph - N/A   Clear
7:35 PM 59.0 °F - 37.4 °F 45% 29.75 in 10.0 mi SSE 12.7 mph 16.1 mph N/A   Clear
7:55 PM 59.0 °F - 37.4 °F 45% 29.73 in 10.0 mi SSE 11.5 mph 19.6 mph N/A   Clear
8:15 PM 59.0 °F - 37.4 °F 45% 29.72 in 10.0 mi SSE 15.0 mph 19.6 mph N/A   Clear
8:35 PM 59.0 °F - 37.4 °F 45% 29.71 in 10.0 mi SSE 15.0 mph - N/A   Clear
8:55 PM 59.0 °F - 37.4 °F 45% 29.71 in 10.0 mi SSE 17.3 mph 21.9 mph N/A   Clear
9:15 PM 59.0 °F - 37.4 °F 45% 29.71 in 10.0 mi SSE 15.0 mph 20.7 mph N/A   Clear
9:35 PM 59.0 °F - 37.4 °F 45% 29.70 in 10.0 mi SSE 13.8 mph 21.9 mph N/A   Clear
9:55 PM 59.0 °F - 37.4 °F 45% 29.69 in 10.0 mi South 17.3 mph 23.0 mph N/A   Clear
10:15 PM 59.0 °F - 37.4 °F 45% 29.68 in 10.0 mi South 17.3 mph 24.2 mph N/A   Clear
10:35 PM 59.0 °F - 39.2 °F 48% 29.67 in 10.0 mi South 15.0 mph 23.0 mph N/A   Clear
10:55 PM 59.0 °F - 39.2 °F 48% 29.67 in 10.0 mi South 15.0 mph 24.2 mph N/A   Clear
11:15 PM 59.0 °F - 39.2 °F 48% 29.65 in 10.0 mi South 17.3 mph 23.0 mph N/A   Clear
11:35 PM 59.0 °F - 39.2 °F 48% 29.64 in 10.0 mi South 15.0 mph 24.2 mph N/A   Clear
11:55 PM 59.0 °F - 39.2 °F 48% 29.62 in 10.0 mi South 16.1 mph 23.0 mph N/A   Clear